When you browse on this site, cookies collect data to enhance your experience and personalize the content and advertising you see.
Visit our Privacy Policy to learn more. By continuing to use the site, you agree to this use of cookies and data.
  • In Slovakia
  • List of Countries
  • For 7 days
  • Water Temperature
  • Satellite Maps
  • Weather Map
  • Weather Widgets
  • user-avatar
    Login

    Hourly Weather Río Gallegos

    Today, 18 November, Sunday

    Time Temperature Precipitation Wind Pressure Humidity
    00:00 +8°C° 0 mm 4 mps 744 mmHg 72%
    01:00 +9°C° 0 mm 2 mps 743 mmHg 69%
    02:00 +8°C° 0.2 mm 4 mps 743 mmHg 67%
    03:00 +8°C° 0.2 mm 6 mps 744 mmHg 65%
    04:00 +7°C° 0.2 mm 9 mps 745 mmHg 62%
    05:00 +7°C° 0 mm 11 mps 745 mmHg 57%
    06:00 +7°C° 0 mm 12 mps 746 mmHg 53%
    07:00 +8°C° 0 mm 15 mps 746 mmHg 47%
    08:00 +9°C° 0 mm 14 mps 746 mmHg 44%
    09:00 +10°C° 0 mm 14 mps 747 mmHg 40%
    10:00 +12°C° 0 mm 14 mps 747 mmHg 37%
    11:00 +12°C° 0 mm 14 mps 747 mmHg 36%
    12:00 +13°C° 0 mm 13 mps 747 mmHg 35%
    13:00 +13°C° 0 mm 13 mps 747 mmHg 34%
    14:00 +13°C° 0 mm 12 mps 747 mmHg 34%
    15:00 +13°C° 0 mm 12 mps 747 mmHg 33%
    16:00 +13°C° 0 mm 11 mps 746 mmHg 32%
    17:00 +12°C° 0 mm 10 mps 746 mmHg 33%
    18:00 +12°C° 0 mm 9 mps 746 mmHg 34%
    19:00 +11°C° 0 mm 8 mps 746 mmHg 35%
    20:00 +10°C° 0 mm 8 mps 745 mmHg 37%
    21:00 +10°C° 0 mm 7 mps 745 mmHg 38%
    22:00 +9°C° 0 mm 6 mps 745 mmHg 40%
    23:00 +9°C° 0 mm 5 mps 744 mmHg 42%

    Tomorrow, 19 November, Monday

    Time Temperature Precipitation Wind Pressure Humidity
    00:00 +8°C° 0 mm 5 mps 744 mmHg 45%
    01:00 +8°C° 0 mm 4 mps 743 mmHg 47%
    02:00 +9°C° 0 mm 3 mps 742 mmHg 49%
    03:00 +9°C° 0 mm 3 mps 742 mmHg 50%
    04:00 +9°C° 0 mm 3 mps 741 mmHg 52%
    05:00 +9°C° 0 mm 5 mps 740 mmHg 49%
    06:00 +10°C° 0 mm 6 mps 740 mmHg 46%
    07:00 +11°C° 0 mm 8 mps 740 mmHg 43%
    08:00 +12°C° 0 mm 10 mps 739 mmHg 40%
    09:00 +13°C° 0 mm 11 mps 739 mmHg 38%
    10:00 +14°C° 0 mm 13 mps 738 mmHg 36%
    11:00 +14°C° 0 mm 14 mps 738 mmHg 36%
    12:00 +14°C° 0 mm 14 mps 738 mmHg 36%
    13:00 +13°C° 0 mm 15 mps 738 mmHg 36%
    14:00 +13°C° 0 mm 15 mps 739 mmHg 38%
    15:00 +11°C° 0 mm 16 mps 739 mmHg 40%
    16:00 +10°C° 0 mm 16 mps 739 mmHg 41%
    17:00 +9°C° 0 mm 15 mps 740 mmHg 44%
    18:00 +8°C° 0 mm 15 mps 740 mmHg 47%
    19:00 +6°C° 0 mm 14 mps 741 mmHg 50%
    20:00 +6°C° 0 mm 14 mps 741 mmHg 52%
    21:00 +5°C° 0 mm 13 mps 742 mmHg 55%
    22:00 +4°C° 0 mm 13 mps 742 mmHg 58%
    23:00 +4°C° 0 mm 13 mps 743 mmHg 58%

    Day after tomorrow, 20 November, Tuesday

    Time Temperature Precipitation Wind Pressure Humidity
    00:00 +4°C° 0 mm 12 mps 743 mmHg 59%
    01:00 +4°C° 0 mm 12 mps 743 mmHg 60%
    02:00 +4°C° 0 mm 12 mps 743 mmHg 60%
    03:00 +3°C° 0 mm 11 mps 744 mmHg 60%
    04:00 +3°C° 0 mm 11 mps 744 mmHg 61%
    05:00 +5°C° 0 mm 10 mps 744 mmHg 57%
    06:00 +6°C° 0 mm 10 mps 744 mmHg 52%
    07:00 +7°C° 0 mm 9 mps 744 mmHg 48%
    08:00 +9°C° 0.1 mm 8 mps 743 mmHg 47%
    09:00 +9°C° 0.1 mm 7 mps 742 mmHg 46%
    10:00 +10°C° 0.1 mm 5 mps 742 mmHg 44%
    11:00 +10°C° 0.3 mm 6 mps 741 mmHg 48%
    12:00 +9°C° 0.3 mm 6 mps 740 mmHg 51%
    13:00 +9°C° 0.3 mm 6 mps 739 mmHg 55%
    14:00 +9°C° 0.2 mm 5 mps 738 mmHg 58%
    15:00 +10°C° 0.2 mm 4 mps 737 mmHg 61%
    16:00 +10°C° 0.2 mm 4 mps 736 mmHg 64%
    17:00 +10°C° 0.1 mm 4 mps 735 mmHg 66%
    18:00 +10°C° 0.1 mm 4 mps 735 mmHg 68%
    19:00 +8°C° 0.1 mm 4 mps 735 mmHg 70%
    20:00 +8°C° 0 mm 4 mps 735 mmHg 72%
    21:00 +7°C° 0 mm 5 mps 736 mmHg 73%
    22:00 +7°C° 0 mm 5 mps 736 mmHg 75%
    23:00 +5°C° 0 mm 6 mps 736 mmHg 74%

    21 November, Wednesday

    Time Temperature Precipitation Wind Pressure Humidity
    00:00 +5°C° 0 mm 7 mps 736 mmHg 73%
    01:00 +5°C° 0 mm 8 mps 736 mmHg 72%
    02:00 +3°C° 0 mm 9 mps 737 mmHg 72%
    03:00 +3°C° 0 mm 10 mps 737 mmHg 71%
    04:00 +2°C° 0 mm 11 mps 738 mmHg 70%
    05:00 +3°C° 0 mm 12 mps 738 mmHg 63%
    06:00 +4°C° 0 mm 12 mps 738 mmHg 57%
    07:00 +5°C° 0 mm 13 mps 739 mmHg 50%
    08:00 +7°C° 0.1 mm 13 mps 739 mmHg 48%
    09:00 +8°C° 0.1 mm 12 mps 739 mmHg 46%
    10:00 +9°C° 0.1 mm 12 mps 740 mmHg 44%
    11:00 +9°C° 0.5 mm 13 mps 741 mmHg 44%
    12:00 +9°C° 0.5 mm 14 mps 742 mmHg 45%
    13:00 +9°C° 0.5 mm 15 mps 743 mmHg 45%
    14:00 +9°C° 0.1 mm 15 mps 745 mmHg 44%
    15:00 +9°C° 0.1 mm 14 mps 746 mmHg 42%
    16:00 +8°C° 0.1 mm 14 mps 748 mmHg 41%
    17:00 +8°C° 0 mm 13 mps 749 mmHg 43%
    18:00 +7°C° 0 mm 12 mps 750 mmHg 45%
    19:00 +6°C° 0 mm 10 mps 751 mmHg 47%
    20:00 +5°C° 0 mm 9 mps 752 mmHg 51%
    21:00 +5°C° 0 mm 8 mps 752 mmHg 55%
    22:00 +4°C° 0 mm 7 mps 753 mmHg 59%
    23:00 +4°C° 0 mm 7 mps 753 mmHg 57%

    22 November, Thursday

    Time Temperature Precipitation Wind Pressure Humidity
    00:00 +4°C° 0 mm 6 mps 753 mmHg 55%
    01:00 +3°C° 0 mm 6 mps 753 mmHg 54%
    02:00 +4°C° 0 mm 7 mps 753 mmHg 50%
    03:00 +5°C° 0 mm 9 mps 753 mmHg 47%
    04:00 +5°C° 0 mm 10 mps 752 mmHg 44%
    05:00 +7°C° 0 mm 11 mps 752 mmHg 44%
    06:00 +8°C° 0 mm 11 mps 753 mmHg 44%
    07:00 +9°C° 0 mm 12 mps 753 mmHg 44%
    08:00 +10°C° 0 mm 12 mps 753 mmHg 44%
    09:00 +10°C° 0 mm 12 mps 753 mmHg 45%
    10:00 +12°C° 0 mm 12 mps 753 mmHg 45%
    11:00 +13°C° 0 mm 11 mps 753 mmHg 42%
    12:00 +14°C° 0 mm 11 mps 753 mmHg 39%
    13:00 +14°C° 0 mm 11 mps 753 mmHg 36%
    14:00 +14°C° 0 mm 11 mps 753 mmHg 36%
    15:00 +14°C° 0 mm 11 mps 753 mmHg 36%
    16:00 +14°C° 0 mm 11 mps 753 mmHg 36%
    17:00 +13°C° 0 mm 10 mps 754 mmHg 38%
    18:00 +12°C° 0 mm 10 mps 754 mmHg 40%
    19:00 +11°C° 0 mm 9 mps 754 mmHg 42%
    20:00 +11°C° 0 mm 9 mps 754 mmHg 43%
    21:00 +10°C° 0 mm 8 mps 754 mmHg 43%
    22:00 +9°C° 0 mm 8 mps 754 mmHg 44%
    23:00 +9°C° 0 mm 7 mps 754 mmHg 46%

    23 November, Friday

    Time Temperature Precipitation Wind Pressure Humidity
    00:00 +9°C° 0 mm 6 mps 754 mmHg 48%
    01:00 +8°C° 0 mm 5 mps 753 mmHg 50%
    02:00 +8°C° 0 mm 5 mps 753 mmHg 54%
    03:00 +7°C° 0 mm 4 mps 753 mmHg 58%
    04:00 +7°C° 0 mm 4 mps 753 mmHg 63%
    05:00 +9°C° 0 mm 3 mps 753 mmHg 57%
    06:00 +11°C° 0 mm 3 mps 752 mmHg 51%
    07:00 +13°C° 0 mm 2 mps 752 mmHg 45%
    08:00 +14°C° 0 mm 2 mps 751 mmHg 41%
    09:00 +14°C° 0 mm 3 mps 750 mmHg 37%
    10:00 +16°C° 0 mm 3 mps 750 mmHg 33%
    11:00 +17°C° 0 mm 4 mps 749 mmHg 32%
    12:00 +17°C° 0 mm 5 mps 748 mmHg 31%
    13:00 +17°C° 0 mm 6 mps 748 mmHg 29%
    14:00 +17°C° 0 mm 6 mps 747 mmHg 31%
    15:00 +16°C° 0 mm 7 mps 747 mmHg 33%
    16:00 +16°C° 0 mm 7 mps 747 mmHg 35%
    17:00 +15°C° 0 mm 6 mps 747 mmHg 38%
    18:00 +15°C° 0 mm 6 mps 747 mmHg 40%
    19:00 +14°C° 0 mm 6 mps 747 mmHg 42%
    20:00 +11°C° 0 mm 7 mps 748 mmHg 47%
    21:00 +10°C° 0 mm 8 mps 748 mmHg 53%
    22:00 +7°C° 0 mm 9 mps 749 mmHg 58%
    23:00 +6°C° 0 mm 8 mps 750 mmHg 60%
    Show more